Regional Weather Roundup
Issued by NWS

Home | Current Version | Previous Version | Text Only | Print | Product List | Glossary On
Versions: 1 2 3 4 5 6 7 8 9 10 11 12 13 14 15 16 17 18 19 20 21 22 23 24 25 26 27 28 29 30 31 32 33 34 35 36 37 38 39 40 41 42 43 44 45 46 47 48 49 50
000
ASUS43 KMPX 302210
RWRMN
WEATHER ROUNDUP FOR MINNESOTA
NATIONAL WEATHER SERVICE TWIN CITIES/CHANHASSEN MN
500 PM CDT THU JUL 30 2015


NOTE: "FAIR" INDICATES FEW OR NO CLOUDS BELOW 12,000 FEET WITH NO
SIGNIFICANT WEATHER AND/OR OBSTRUCTIONS TO VISIBILITY. N/A MEANS
CURRENT SKY AND/OR WEATHER CONDITIONS ARE NOT AVAILABLE.

MNZ060>063-068>070-302300-
   Twin Cities Metro

CITY           SKY/WX    TMP DP  RH WIND       PRES   REMARKS
TWIN CITIES    SUNNY     84  54  35 W16G29    30.02F
ST PAUL        SUNNY     84  54  35 W14G28    30.02F
CRYSTAL        SUNNY     85  53  33 NW17G25   30.01F
BLAINE         MOSUNNY   84  54  34 W18       30.02F
LAKEVILLE      SUNNY     81  61  50 W9        30.05S
EDEN PRAIRIE   SUNNY     84  56  38 W13G22    30.03F
SOUTH ST PAUL  SUNNY     84  51  31 W13G22    30.02F
LAKE ELMO      FAIR      81  57  44 NW14G26   30.03F
$$
MNZ001>005-007-008-013>017-022>024-027-028-302300-
   Northwest Minnesota

CITY           SKY/WX    TMP DP  RH WIND       PRES   REMARKS
BEMIDJI        MOSUNNY   79  51  36 W21G28    29.98F
HALLOCK        MOSUNNY   79  50  36 W14       29.93F
ROSEAU         SUNNY     79  57  47 W15G25    29.92S
WARROAD        MOSUNNY   75  59  57 W10G17    29.91S
THIEF RVR FALL MOSUNNY   79  54  41 W16       29.97F
CROOKSTON      MOSUNNY   81  55  41 NW20      29.98F
FOSSTON        MOSUNNY   79  54  41 W18       30.00F
DETROIT LAKES  SUNNY     79  50  36 NW17G28   30.05S
MOORHEAD       SUNNY     81  57  44 NW16      30.03S
PARK RAPIDS    SUNNY     81  52  36 W18G31    30.01F
MAHNOMEN       FAIR      78  56  46 W15G25    30.01S
$$
MNZ006-009>011-018-025>026-302300-
   North Central Minnesota

CITY           SKY/WX    TMP DP  RH WIND       PRES   REMARKS
BAUDETTE       SUNNY     79  55  43 W15G23    29.90S
FLAG ISLAND    SUNNY     77  52  41 W22G30    29.86S
INTL FALLS     MOSUNNY   78  54  43 W14G30    29.87F
WASKISH        SUNNY     79  61  53 W14       29.93F
BIG FORK       MOSUNNY   79  54  41 W9G17     29.94S
LONGVILLE      MOSUNNY   79  54  41 W9G21     29.98S
GRAND RAPIDS   MOSUNNY   79  54  41 NW16      29.96F
CRANE LAKE     MOSUNNY   75  54  46 W8G17     29.88F
ORR            MOSUNNY   81  52  36 W16G23    29.87F
COOK           SUNNY     77  57  50 W12       29.90F
WALKER         FAIR      77  53  43 W13G25    29.98S
$$
MNZ012-019>021-037-302300-
   Northeast Minnesota

CITY           SKY/WX    TMP DP  RH WIND       PRES   REMARKS
DULUTH         MOSUNNY   81  50  33 NW20G30   29.93F
ELY            MOSUNNY   77  55  47 W13G22    29.88F
HIBBING        SUNNY     80  49  33 W14G23    29.93S
EVELETH        SUNNY     81  48  32 W17G30    29.93S
DULUTH HARBOR  MOSUNNY   82  52  34 W24G30    29.91S
TWO HARBORS    MOSUNNY   82  57  42 W10G26    29.88S
SILVER BAY     SUNNY     81  59  47 W3        29.87F
GRAND MARAIS     N/A     61  50  67 VRB5      29.84S
G MARAIS ARPRT LGT RAIN  64  55  72 NW7       29.90R
$$
MNZ029>031-032-039>041-046>048-054>057-064-302300-
   West Central Minnesota

CITY           SKY/WX    TMP DP  RH WIND       PRES   REMARKS
FERGUS FALLS   MOSUNNY   81  55  41 NW15      30.03F
WHEATON        SUNNY     81  59  47 W12       30.06F
MORRIS         SUNNY     82  61  47 NW10G16   30.05F
ALEXANDRIA     MOSUNNY   79  57  46 W14       30.07F
ELBOW LAKE     FAIR      81  60  48 W15       30.05F
WADENA         MOSUNNY   81  54  39 W15G26    30.02F
GLENWOOD       MOSUNNY   82  55  39 W20G25    30.07F
APPLETON       SUNNY     86  54  32 W12       30.05F
BENSON         SUNNY     84  55  37 NW13      30.05F
ORTONVILLE     SUNNY     84  52  32 W13G18    30.06F
MADISON        SUNNY     86  48  26 W12       30.07S
WILLMAR        FAIR      84  63  48 W8        30.07F
$$
MNZ033>034-036-042>043-049>051-058-059-302300-
   Central Minnesota

CITY           SKY/WX    TMP DP  RH WIND       PRES   REMARKS
ST CLOUD       MOSUNNY   83  55  38 W14G22    30.03F
SAUK CENTRE    FAIR      80  59  48 W15G21    30.05F
PAYNESVILLE    SUNNY     81  55  41 SW14G20   30.06F
AITKIN         MOSUNNY   81  55  41 W9        29.97S
PINE RIVER     MOSUNNY   79  55  44 W9G21     30.02F
BRAINERD       MOSUNNY   79  52  38 W16G28    30.00F
STAPLES        MOSUNNY   81  52  36 W14G24    30.02F
LONG PRAIRIE   FAIR      81  57  44 W13       30.05F
LITTLE FALLS   MOSUNNY   81  50  34 W12G18    30.03S
LITCHFIELD     SUNNY     82  57  42 W12       30.05F
BUFFALO        SUNNY     82  54  37 W9        30.05S
MAPLE LAKE     SUNNY     82  57  42 W8G16     30.05F
$$
MNZ037-044-045-052-053-302300-
   East Central Minnesota

CITY           SKY/WX    TMP DP  RH WIND       PRES   REMARKS
PRINCETON      SUNNY     84  55  37 W16G23    30.02S
MORA           MOSUNNY   79  52  38 W14G25    30.01S
CAMBRIDGE      SUNNY     84  61  45 W15G22    29.99F
RUSH CITY      MOSUNNY   80  55  42 W13G22    30.00S
MOOSE LAKE     MOSUNNY   79  54  41 W7        29.95S
HINCKLEY       FAIR      81  55  41 W13G23    29.98F
CLOQUET        SUNNY     81  46  30 W18G26    29.94F
MCGREGOR       MOSUNNY   81  52  36 W15G23    29.97F
$$
MNZ071>073-080-081-089-090-097-098-302300-
   Southwest Minnesota

CITY           SKY/WX    TMP DP  RH WIND       PRES   REMARKS
MONTEVIDEO     SUNNY     88  57  35 NW8       30.08F
GRANITE FALLS  SUNNY     84  60  43 W9        30.08F
CANBY          SUNNY     85  51  30 W15       30.09F
MARSHALL       SUNNY     84  54  34 W14       30.10F
REDWOOD FALLS  SUNNY     85  55  35 W9        30.07F
OLIVIA         SUNNY     81  55  41 W9        30.06F
PIPESTONE      SUNNY     82  59  44 W8        30.13F
WINDOM         SUNNY     84  57  39 W8        30.11F
WORTHINGTON    SUNNY     82  63  51 SW7       30.13F
JACKSON        SUNNY     84  59  42 W8        30.12F
TRACY          SUNNY     84  59  42 W5        30.11S
SLAYTON        SUNNY     87  54  32 CALM      30.13F
$$
MNZ065>067-074>077-082>085-091>093-302300-
   South Central Minnesota

CITY           SKY/WX    TMP DP  RH WIND       PRES   REMARKS
MANKATO        SUNNY     82  57  42 W10       30.07F
NEW ULM        SUNNY     82  54  36 W8        30.08S
ST JAMES       SUNNY     86  54  32 SW9       30.10S
FAIRMONT       SUNNY     84  55  37 W8        30.10F
GLENCOE        SUNNY     83  61  47 W10G17    30.06S
FARIBAULT      SUNNY     81  61  50 W10G16    30.07F
OWATONNA       SUNNY     82  57  42 W10       30.08F
WASECA         SUNNY     79  59  50 W7        30.09F
ALBERT LEA     SUNNY     82  55  39 W6        30.09F
$$
MNZ078>079-086>088-094>096-302300-
   Southeast Minnesota

CITY           SKY/WX    TMP DP  RH WIND       PRES   REMARKS
ROCHESTER      SUNNY     80  60  50 W14       30.08F
RED WING       SUNNY     86  54  32 W12G23    30.01S
STANTON        SUNNY     83  58  42 W10       30.04S
DODGE CENTER   SUNNY     81  54  39 W15G21    30.08F
WINONA         SUNNY     82  54  36 NW14G21   30.03S
AUSTIN         SUNNY     84  55  37 W9        30.09S
PRESTON        SUNNY     80  58  46 W10       30.08F
$$
ABBREVIATIONS USED IN REMARKS
   TC - TEMPERATURES IN CELSIUS
  WCI - WIND CHILL INDEX
   HX - HEAT INDEX
  VSB - VISIBILITY
$$


USA.gov is the U.S. government's official web portal to all federal, state and local government web resources and services.